sat.trackr.live / text

‹ back to catalog

STARLINK-11427 [DTC]

NORAD 62063 · 2024-217G

PAYLOAD ACTIVE UNKNOWN

§ Identity

Operator
Country
US
Launch date
2024-11-24
Launch site
AFWTR
Launch vehicle
Mass (kg)
RCS (m²)

Purposes: comms

External: N2YO · Heavens-Above · Gunter

§ Orbital elements

Epoch: 2026-05-25T01:06:42.599232Z

Period
91.73 min
Inclination
53.1571°
Eccentricity
0.0000855
Mean motion
15.69770123 rev/d
Perigee alt
359.0 km
Apogee alt
360.1 km
Semi-major
6,737.7 km
B*
1.1018e-3
RAAN
55.0318°
Arg perigee
72.4875°
Mean anomaly
287.6236°
Rev number
8,716

§ Raw data

STARLINK-11427 [DTC]1 62063U 24217G   26145.04632638  .00135424  00000+0  11018-2 0  99942 62063  53.1571  55.0318 0000855  72.4875 287.6236 15.69770123 87161

JSON: /api/v1/satellites/62063 · /tle

For live sub-satellite position, see the globe view (requires WebGL).

§ Visibility from observer

Set your observer location to see the next 7 days of passes ≥ 10°. The values pass through the URL so the page stays shareable.

No JS? Fill the form by hand. The geolocation button needs JavaScript.